Regional Weather Roundup
Issued by NWS

Home | Current Version | Previous Version | Text Only | Print | Product List | Glossary Off
Versions: 1 2 3 4 5 6 7 8 9 10 11 12 13 14 15 16 17 18 19 20 21 22 23 24 25 26 27 28 29 30 31 32 33 34 35 36 37 38 39 40 41 42 43 44 45 46 47 48 49 50

000
ASUS44 KMEG 190800
RWRTN
TENNESSEE HOURLY STATE WEATHER ROUNDUP
NATIONAL WEATHER SERVICE MEMPHIS TN
300 AM CDT SUN APR 19 2015

TNZ002-004-019-021-049-052-054-088>092-190900-
WEST TENNESSEE

CITY           SKY/WX    TMP DP  RH WIND       PRES   REMARKS
MEMPHIS INTL   LGT RAIN  66  62  87 SE3       29.71F
NWS MEMPHIS      N/A     64 N/A N/A MISG        N/A
JACKSON        CLOUDY    65  63  93 S3        29.73F
DYERSBURG      CLOUDY    64  52  63 CALM      29.73F
UNION CITY     CLOUDY    64  32  29 SE3       29.72F
PARIS          CLOUDY    63  63 100 E3        29.75F
LEXINGTON      MOCLDY    63  63 100 CALM      29.73F
SAVANNAH       CLOUDY    64  32  29 CALM      29.75F
$$

TNZ008-025-027-028-033-062-065-066-190900-
NORTH MIDDLE TENNESSEE

CITY           SKY/WX    TMP DP  RH WIND       PRES   REMARKS
NASHVILLE      LGT RAIN  65  63  93 CALM      29.78F
CLARKSVILLE    RAIN      65  62  90 CALM      29.76F FOG
COOKEVILLE     CLOUDY    64  63  94 SE5       29.82F
CROSSVILLE     CLOUDY    63  60  90 S3        29.88F
$$

TNZ061-075-076-078-094-096-097-190900-
SOUTH MIDDLE TENNESSEE

CITY           SKY/WX    TMP DP  RH WIND       PRES   REMARKS
FAYETTEVILLE   CLOUDY    63  63 100 SE6       29.79F
TULLAHOMA      MOCLDY    64  61  88 CALM      29.81F
WINCHESTER     CLOUDY    64  63  94 SE6       29.81F
MCMINNVILLE    PTCLDY    66  64  94 SE5       29.82F
COLUMBIA       MOCLDY    64  32  29 E3        29.75F
SHELBYVILLE    CLOUDY    66  64  94 E5        29.80F
$$

TNZ017-018-042-046-047-190900-
NORTHEAST TENNESSEE

CITY           SKY/WX    TMP DP  RH WIND       PRES   REMARKS
TRI CITIES     CLOUDY    60  59  96 CALM      29.92F
ELIZABETHTON   PTSUNNY   63  55  77 E7        29.93F
$$

TNZ012-013-036-069-073-074-190900-
CENTRAL EAST TENNESSEE

CITY           SKY/WX    TMP DP  RH WIND       PRES   REMARKS
KNOXVILLE      CLOUDY    64  62  93 CALM      29.86S FOG
OAK RIDGE      CLOUDY    65  62  90 CALM      29.88F
GATLINBURG     PTSUNNY   63  63 100 CALM      29.87F
$$

TNZ083-085-099-190900-
SOUTHEAST TENNESSEE

CITY           SKY/WX    TMP DP  RH WIND       PRES   REMARKS
CHATTANOOGA    LGT RAIN  67  63  87 S5        29.84F
$$

SKY/WX REPORTED AS FAIR MEANS FEW OR NO CLOUDS BELOW
12 THOUSAND FEET.



USA.gov is the U.S. government's official web portal to all federal, state and local government web resources and services.